Index of /20260428/WXO-DD/model_gdps/15km/00/087
Name Last modified Size Description
Parent Directory -
20260428T00Z_MSC_GDPS_AbsoluteVorticity_IsbL-0200_LatLon0.15_PT087H.grib2 2026-04-28 04:29 1.5M
20260428T00Z_MSC_GDPS_AbsoluteVorticity_IsbL-0250_LatLon0.15_PT087H.grib2 2026-04-28 04:29 1.3M
20260428T00Z_MSC_GDPS_AbsoluteVorticity_IsbL-0500_LatLon0.15_PT087H.grib2 2026-04-28 04:29 1.4M
20260428T00Z_MSC_GDPS_AbsoluteVorticity_IsbL-0700_LatLon0.15_PT087H.grib2 2026-04-28 04:29 1.6M
20260428T00Z_MSC_GDPS_AbsoluteVorticity_IsbL-0850_LatLon0.15_PT087H.grib2 2026-04-28 04:29 1.6M
20260428T00Z_MSC_GDPS_AirTemp_AGL-120m_LatLon0.15_PT087H.grib2 2026-04-28 04:29 794K
20260428T00Z_MSC_GDPS_AirTemp_AGL-2m_LatLon0.15_PT087H.grib2 2026-04-28 04:29 1.0M
20260428T00Z_MSC_GDPS_AirTemp_AGL-40m_LatLon0.15_PT087H.grib2 2026-04-28 04:29 814K
20260428T00Z_MSC_GDPS_AirTemp_AGL-80m_LatLon0.15_PT087H.grib2 2026-04-28 04:29 802K
20260428T00Z_MSC_GDPS_AirTemp_IsbL-0001_LatLon0.15_PT087H.grib2 2026-04-28 04:29 648K
20260428T00Z_MSC_GDPS_AirTemp_IsbL-0005_LatLon0.15_PT087H.grib2 2026-04-28 04:29 684K
20260428T00Z_MSC_GDPS_AirTemp_IsbL-0010_LatLon0.15_PT087H.grib2 2026-04-28 04:29 758K
20260428T00Z_MSC_GDPS_AirTemp_IsbL-0020_LatLon0.15_PT087H.grib2 2026-04-28 04:29 785K
20260428T00Z_MSC_GDPS_AirTemp_IsbL-0030_LatLon0.15_PT087H.grib2 2026-04-28 04:29 751K
20260428T00Z_MSC_GDPS_AirTemp_IsbL-0050_LatLon0.15_PT087H.grib2 2026-04-28 04:29 802K
20260428T00Z_MSC_GDPS_AirTemp_IsbL-0100_LatLon0.15_PT087H.grib2 2026-04-28 04:29 1.0M
20260428T00Z_MSC_GDPS_AirTemp_IsbL-0150_LatLon0.15_PT087H.grib2 2026-04-28 04:29 967K
20260428T00Z_MSC_GDPS_AirTemp_IsbL-0175_LatLon0.15_PT087H.grib2 2026-04-28 04:29 953K
20260428T00Z_MSC_GDPS_AirTemp_IsbL-0200_LatLon0.15_PT087H.grib2 2026-04-28 04:29 966K
20260428T00Z_MSC_GDPS_AirTemp_IsbL-0225_LatLon0.15_PT087H.grib2 2026-04-28 04:29 1.0M
20260428T00Z_MSC_GDPS_AirTemp_IsbL-0250_LatLon0.15_PT087H.grib2 2026-04-28 04:29 1.0M
20260428T00Z_MSC_GDPS_AirTemp_IsbL-0275_LatLon0.15_PT087H.grib2 2026-04-28 04:29 1.0M
20260428T00Z_MSC_GDPS_AirTemp_IsbL-0300_LatLon0.15_PT087H.grib2 2026-04-28 04:29 942K
20260428T00Z_MSC_GDPS_AirTemp_IsbL-0350_LatLon0.15_PT087H.grib2 2026-04-28 04:29 924K
20260428T00Z_MSC_GDPS_AirTemp_IsbL-0400_LatLon0.15_PT087H.grib2 2026-04-28 04:29 937K
20260428T00Z_MSC_GDPS_AirTemp_IsbL-0450_LatLon0.15_PT087H.grib2 2026-04-28 04:29 738K
20260428T00Z_MSC_GDPS_AirTemp_IsbL-0500_LatLon0.15_PT087H.grib2 2026-04-28 04:29 763K
20260428T00Z_MSC_GDPS_AirTemp_IsbL-0550_LatLon0.15_PT087H.grib2 2026-04-28 04:29 800K
20260428T00Z_MSC_GDPS_AirTemp_IsbL-0600_LatLon0.15_PT087H.grib2 2026-04-28 04:29 897K
20260428T00Z_MSC_GDPS_AirTemp_IsbL-0650_LatLon0.15_PT087H.grib2 2026-04-28 04:29 922K
20260428T00Z_MSC_GDPS_AirTemp_IsbL-0700_LatLon0.15_PT087H.grib2 2026-04-28 04:29 958K
20260428T00Z_MSC_GDPS_AirTemp_IsbL-0750_LatLon0.15_PT087H.grib2 2026-04-28 04:29 1.0M
20260428T00Z_MSC_GDPS_AirTemp_IsbL-0800_LatLon0.15_PT087H.grib2 2026-04-28 04:29 1.1M
20260428T00Z_MSC_GDPS_AirTemp_IsbL-0850_LatLon0.15_PT087H.grib2 2026-04-28 04:29 1.1M
20260428T00Z_MSC_GDPS_AirTemp_IsbL-0875_LatLon0.15_PT087H.grib2 2026-04-28 04:29 1.2M
20260428T00Z_MSC_GDPS_AirTemp_IsbL-0900_LatLon0.15_PT087H.grib2 2026-04-28 04:29 1.1M
20260428T00Z_MSC_GDPS_AirTemp_IsbL-0925_LatLon0.15_PT087H.grib2 2026-04-28 04:29 1.1M
20260428T00Z_MSC_GDPS_AirTemp_IsbL-0950_LatLon0.15_PT087H.grib2 2026-04-28 04:29 1.1M
20260428T00Z_MSC_GDPS_AirTemp_IsbL-0970_LatLon0.15_PT087H.grib2 2026-04-28 04:29 1.2M
20260428T00Z_MSC_GDPS_AirTemp_IsbL-0985_LatLon0.15_PT087H.grib2 2026-04-28 04:29 1.1M
20260428T00Z_MSC_GDPS_AirTemp_IsbL-1000_LatLon0.15_PT087H.grib2 2026-04-28 04:29 1.1M
20260428T00Z_MSC_GDPS_AirTemp_IsbL-1015_LatLon0.15_PT087H.grib2 2026-04-28 04:29 1.1M
20260428T00Z_MSC_GDPS_Albedo_Sfc_LatLon0.15_PT087H.grib2 2026-04-28 04:29 241K
20260428T00Z_MSC_GDPS_CAPE_Sfc_LatLon0.15_PT087H.grib2 2026-04-28 04:29 4.0M
20260428T00Z_MSC_GDPS_CIN_Sfc_LatLon0.15_PT087H.grib2 2026-04-28 04:29 2.9M
20260428T00Z_MSC_GDPS_CloudWater_EAtm_LatLon0.15_PT087H.grib2 2026-04-28 04:29 540K
20260428T00Z_MSC_GDPS_ConvectivePrecip-Accum_Sfc_LatLon0.15_PT087H.grib2 2026-04-28 04:29 3.3M
20260428T00Z_MSC_GDPS_DewPointDepression_AGL-2m_LatLon0.15_PT087H.grib2 2026-04-28 04:29 765K
20260428T00Z_MSC_GDPS_DewPointDepression_IsbL-0010_LatLon0.15_PT087H.grib2 2026-04-28 04:29 57K
20260428T00Z_MSC_GDPS_DewPointDepression_IsbL-0020_LatLon0.15_PT087H.grib2 2026-04-28 04:29 62K
20260428T00Z_MSC_GDPS_DewPointDepression_IsbL-0030_LatLon0.15_PT087H.grib2 2026-04-28 04:29 71K
20260428T00Z_MSC_GDPS_DewPointDepression_IsbL-0050_LatLon0.15_PT087H.grib2 2026-04-28 04:29 368K
20260428T00Z_MSC_GDPS_DewPointDepression_IsbL-0100_LatLon0.15_PT087H.grib2 2026-04-28 04:29 408K
20260428T00Z_MSC_GDPS_DewPointDepression_IsbL-0150_LatLon0.15_PT087H.grib2 2026-04-28 04:29 455K
20260428T00Z_MSC_GDPS_DewPointDepression_IsbL-0175_LatLon0.15_PT087H.grib2 2026-04-28 04:29 563K
20260428T00Z_MSC_GDPS_DewPointDepression_IsbL-0200_LatLon0.15_PT087H.grib2 2026-04-28 04:29 686K
20260428T00Z_MSC_GDPS_DewPointDepression_IsbL-0225_LatLon0.15_PT087H.grib2 2026-04-28 04:29 788K
20260428T00Z_MSC_GDPS_DewPointDepression_IsbL-0250_LatLon0.15_PT087H.grib2 2026-04-28 04:29 868K
20260428T00Z_MSC_GDPS_DewPointDepression_IsbL-0275_LatLon0.15_PT087H.grib2 2026-04-28 04:29 877K
20260428T00Z_MSC_GDPS_DewPointDepression_IsbL-0300_LatLon0.15_PT087H.grib2 2026-04-28 04:29 917K
20260428T00Z_MSC_GDPS_DewPointDepression_IsbL-0350_LatLon0.15_PT087H.grib2 2026-04-28 04:29 941K
20260428T00Z_MSC_GDPS_DewPointDepression_IsbL-0400_LatLon0.15_PT087H.grib2 2026-04-28 04:29 1.0M
20260428T00Z_MSC_GDPS_DewPointDepression_IsbL-0450_LatLon0.15_PT087H.grib2 2026-04-28 04:29 1.0M
20260428T00Z_MSC_GDPS_DewPointDepression_IsbL-0500_LatLon0.15_PT087H.grib2 2026-04-28 04:29 1.0M
20260428T00Z_MSC_GDPS_DewPointDepression_IsbL-0550_LatLon0.15_PT087H.grib2 2026-04-28 04:29 1.0M
20260428T00Z_MSC_GDPS_DewPointDepression_IsbL-0600_LatLon0.15_PT087H.grib2 2026-04-28 04:29 1.1M
20260428T00Z_MSC_GDPS_DewPointDepression_IsbL-0650_LatLon0.15_PT087H.grib2 2026-04-28 04:29 1.1M
20260428T00Z_MSC_GDPS_DewPointDepression_IsbL-0700_LatLon0.15_PT087H.grib2 2026-04-28 04:29 1.1M
20260428T00Z_MSC_GDPS_DewPointDepression_IsbL-0750_LatLon0.15_PT087H.grib2 2026-04-28 04:29 1.1M
20260428T00Z_MSC_GDPS_DewPointDepression_IsbL-0800_LatLon0.15_PT087H.grib2 2026-04-28 04:29 1.2M
20260428T00Z_MSC_GDPS_DewPointDepression_IsbL-0850_LatLon0.15_PT087H.grib2 2026-04-28 04:29 1.2M
20260428T00Z_MSC_GDPS_DewPointDepression_IsbL-0875_LatLon0.15_PT087H.grib2 2026-04-28 04:29 1.1M
20260428T00Z_MSC_GDPS_DewPointDepression_IsbL-0900_LatLon0.15_PT087H.grib2 2026-04-28 04:29 1.1M
20260428T00Z_MSC_GDPS_DewPointDepression_IsbL-0925_LatLon0.15_PT087H.grib2 2026-04-28 04:29 1.0M
20260428T00Z_MSC_GDPS_DewPointDepression_IsbL-0950_LatLon0.15_PT087H.grib2 2026-04-28 04:29 1.0M
20260428T00Z_MSC_GDPS_DewPointDepression_IsbL-0970_LatLon0.15_PT087H.grib2 2026-04-28 04:29 1.0M
20260428T00Z_MSC_GDPS_DewPointDepression_IsbL-0985_LatLon0.15_PT087H.grib2 2026-04-28 04:29 1.0M
20260428T00Z_MSC_GDPS_DewPointDepression_IsbL-1000_LatLon0.15_PT087H.grib2 2026-04-28 04:29 1.0M
20260428T00Z_MSC_GDPS_DewPointDepression_IsbL-1015_LatLon0.15_PT087H.grib2 2026-04-28 04:29 921K
20260428T00Z_MSC_GDPS_DewPoint_AGL-2m_LatLon0.15_PT087H.grib2 2026-04-28 04:29 612K
20260428T00Z_MSC_GDPS_DownwardLongwaveRadiationFlux-Accum_Sfc_LatLon0.15_PT087H.grib2 2026-04-28 04:29 701K
20260428T00Z_MSC_GDPS_DownwardShortwaveRadiationFlux-Accum_NTAtm_LatLon0.15_PT087H.grib2 2026-04-28 04:29 275K
20260428T00Z_MSC_GDPS_DownwardShortwaveRadiationFlux-Accum_Sfc_LatLon0.15_PT087H.grib2 2026-04-28 04:29 922K
20260428T00Z_MSC_GDPS_FreezingRain-Accum1h_Sfc_LatLon0.15_PT087H.grib2 2026-04-28 04:29 43K
20260428T00Z_MSC_GDPS_FreezingRain-Accum3h_Sfc_LatLon0.15_PT087H.grib2 2026-04-28 04:29 58K
20260428T00Z_MSC_GDPS_FreezingRain-Accum_Sfc_LatLon0.15_PT087H.grib2 2026-04-28 04:29 376K
20260428T00Z_MSC_GDPS_GeopotentialHeight_IsbL-0001_LatLon0.15_PT087H.grib2 2026-04-28 04:29 381K
20260428T00Z_MSC_GDPS_GeopotentialHeight_IsbL-0005_LatLon0.15_PT087H.grib2 2026-04-28 04:29 492K
20260428T00Z_MSC_GDPS_GeopotentialHeight_IsbL-0010_LatLon0.15_PT087H.grib2 2026-04-28 04:29 480K
20260428T00Z_MSC_GDPS_GeopotentialHeight_IsbL-0020_LatLon0.15_PT087H.grib2 2026-04-28 04:29 416K
20260428T00Z_MSC_GDPS_GeopotentialHeight_IsbL-0030_LatLon0.15_PT087H.grib2 2026-04-28 04:29 573K
20260428T00Z_MSC_GDPS_GeopotentialHeight_IsbL-0050_LatLon0.15_PT087H.grib2 2026-04-28 04:29 575K
20260428T00Z_MSC_GDPS_GeopotentialHeight_IsbL-0100_LatLon0.15_PT087H.grib2 2026-04-28 04:29 610K
20260428T00Z_MSC_GDPS_GeopotentialHeight_IsbL-0150_LatLon0.15_PT087H.grib2 2026-04-28 04:29 629K
20260428T00Z_MSC_GDPS_GeopotentialHeight_IsbL-0175_LatLon0.15_PT087H.grib2 2026-04-28 04:29 633K
20260428T00Z_MSC_GDPS_GeopotentialHeight_IsbL-0200_LatLon0.15_PT087H.grib2 2026-04-28 04:29 637K
20260428T00Z_MSC_GDPS_GeopotentialHeight_IsbL-0225_LatLon0.15_PT087H.grib2 2026-04-28 04:29 642K
20260428T00Z_MSC_GDPS_GeopotentialHeight_IsbL-0250_LatLon0.15_PT087H.grib2 2026-04-28 04:29 642K
20260428T00Z_MSC_GDPS_GeopotentialHeight_IsbL-0275_LatLon0.15_PT087H.grib2 2026-04-28 04:29 644K
20260428T00Z_MSC_GDPS_GeopotentialHeight_IsbL-0300_LatLon0.15_PT087H.grib2 2026-04-28 04:29 643K
20260428T00Z_MSC_GDPS_GeopotentialHeight_IsbL-0350_LatLon0.15_PT087H.grib2 2026-04-28 04:29 632K
20260428T00Z_MSC_GDPS_GeopotentialHeight_IsbL-0400_LatLon0.15_PT087H.grib2 2026-04-28 04:29 624K
20260428T00Z_MSC_GDPS_GeopotentialHeight_IsbL-0450_LatLon0.15_PT087H.grib2 2026-04-28 04:29 616K
20260428T00Z_MSC_GDPS_GeopotentialHeight_IsbL-0500_LatLon0.15_PT087H.grib2 2026-04-28 04:29 537K
20260428T00Z_MSC_GDPS_GeopotentialHeight_IsbL-0550_LatLon0.15_PT087H.grib2 2026-04-28 04:29 530K
20260428T00Z_MSC_GDPS_GeopotentialHeight_IsbL-0600_LatLon0.15_PT087H.grib2 2026-04-28 04:29 525K
20260428T00Z_MSC_GDPS_GeopotentialHeight_IsbL-0650_LatLon0.15_PT087H.grib2 2026-04-28 04:29 694K
20260428T00Z_MSC_GDPS_GeopotentialHeight_IsbL-0700_LatLon0.15_PT087H.grib2 2026-04-28 04:29 695K
20260428T00Z_MSC_GDPS_GeopotentialHeight_IsbL-0750_LatLon0.15_PT087H.grib2 2026-04-28 04:29 698K
20260428T00Z_MSC_GDPS_GeopotentialHeight_IsbL-0800_LatLon0.15_PT087H.grib2 2026-04-28 04:29 701K
20260428T00Z_MSC_GDPS_GeopotentialHeight_IsbL-0850_LatLon0.15_PT087H.grib2 2026-04-28 04:29 712K
20260428T00Z_MSC_GDPS_GeopotentialHeight_IsbL-0875_LatLon0.15_PT087H.grib2 2026-04-28 04:29 721K
20260428T00Z_MSC_GDPS_GeopotentialHeight_IsbL-0900_LatLon0.15_PT087H.grib2 2026-04-28 04:29 726K
20260428T00Z_MSC_GDPS_GeopotentialHeight_IsbL-0925_LatLon0.15_PT087H.grib2 2026-04-28 04:29 733K
20260428T00Z_MSC_GDPS_GeopotentialHeight_IsbL-0950_LatLon0.15_PT087H.grib2 2026-04-28 04:29 741K
20260428T00Z_MSC_GDPS_GeopotentialHeight_IsbL-0970_LatLon0.15_PT087H.grib2 2026-04-28 04:29 751K
20260428T00Z_MSC_GDPS_GeopotentialHeight_IsbL-0985_LatLon0.15_PT087H.grib2 2026-04-28 04:29 768K
20260428T00Z_MSC_GDPS_GeopotentialHeight_IsbL-1000_LatLon0.15_PT087H.grib2 2026-04-28 04:29 790K
20260428T00Z_MSC_GDPS_GeopotentialHeight_IsbL-1015_LatLon0.15_PT087H.grib2 2026-04-28 04:29 620K
20260428T00Z_MSC_GDPS_Humidex_Sfc_LatLon0.15_PT087H.grib2 2026-04-28 04:29 5.3M
20260428T00Z_MSC_GDPS_IcePellets-Accum1h_Sfc_LatLon0.15_PT087H.grib2 2026-04-28 04:29 9.8K
20260428T00Z_MSC_GDPS_IcePellets-Accum3h_Sfc_LatLon0.15_PT087H.grib2 2026-04-28 04:29 14K
20260428T00Z_MSC_GDPS_IcePellets-Accum_Sfc_LatLon0.15_PT087H.grib2 2026-04-28 04:29 92K
20260428T00Z_MSC_GDPS_KIndex_Sfc_LatLon0.15_PT087H.grib2 2026-04-28 04:29 6.5M
20260428T00Z_MSC_GDPS_LatentHeatNetFlux_Sfc_LatLon0.15_PT087H.grib2 2026-04-28 04:29 705K
20260428T00Z_MSC_GDPS_LiftedIndex-MU-VT_IsbL-0500_LatLon0.15_PT087H.grib2 2026-04-28 04:29 5.4M
20260428T00Z_MSC_GDPS_NetLongwaveRadiationFlux-Accum_Sfc_LatLon0.15_PT087H.grib2 2026-04-28 04:29 933K
20260428T00Z_MSC_GDPS_NetShortwaveRadiationFlux-Accum_Sfc_LatLon0.15_PT087H.grib2 2026-04-28 04:29 909K
20260428T00Z_MSC_GDPS_O3MixingRatio_LatLon0.15_PT087H.grib2 2026-04-28 04:54 1.9M
20260428T00Z_MSC_GDPS_O3_EAtm_LatLon0.15_PT087H.grib2 2026-04-28 04:54 2.4M
20260428T00Z_MSC_GDPS_PlanetaryBoundaryLayerHeight_Sfc_LatLon0.15_PT087H.grib2 2026-04-28 04:29 2.5M
20260428T00Z_MSC_GDPS_Precip-Accum1h_Sfc_LatLon0.15_PT087H.grib2 2026-04-28 04:29 3.2M
20260428T00Z_MSC_GDPS_Precip-Accum3h_Sfc_LatLon0.15_PT087H.grib2 2026-04-28 04:29 3.5M
20260428T00Z_MSC_GDPS_Precip-Accum_Sfc_LatLon0.15_PT087H.grib2 2026-04-28 04:29 5.3M
20260428T00Z_MSC_GDPS_PrecipRate_Sfc_LatLon0.15_PT087H.grib2 2026-04-28 04:29 3.1M
20260428T00Z_MSC_GDPS_PrecipType-Instant_Sfc_LatLon0.15_PT087H.grib2 2026-04-28 04:29 1.6M
20260428T00Z_MSC_GDPS_Pressure_MSL_LatLon0.15_PT087H.grib2 2026-04-28 04:29 827K
20260428T00Z_MSC_GDPS_Pressure_PVU-1.5_LatLon0.15_PT087H.grib2 2026-04-28 04:29 5.8M
20260428T00Z_MSC_GDPS_Pressure_PVU-1_LatLon0.15_PT087H.grib2 2026-04-28 04:29 6.0M
20260428T00Z_MSC_GDPS_Pressure_PVU-2_LatLon0.15_PT087H.grib2 2026-04-28 04:29 5.6M
20260428T00Z_MSC_GDPS_Pressure_Sfc_LatLon0.15_PT087H.grib2 2026-04-28 04:29 1.1M
20260428T00Z_MSC_GDPS_RadiativeTemp_Sfc_LatLon0.15_PT087H.grib2 2026-04-28 04:29 492K
20260428T00Z_MSC_GDPS_Rain-Accum1h_Sfc_LatLon0.15_PT087H.grib2 2026-04-28 04:29 1.7M
20260428T00Z_MSC_GDPS_Rain-Accum3h_Sfc_LatLon0.15_PT087H.grib2 2026-04-28 04:29 1.9M
20260428T00Z_MSC_GDPS_Rain-Accum_Sfc_LatLon0.15_PT087H.grib2 2026-04-28 04:29 4.0M
20260428T00Z_MSC_GDPS_RelativeHumidity_AGL-2m_LatLon0.15_PT087H.grib2 2026-04-28 04:29 1.1M
20260428T00Z_MSC_GDPS_RelativeHumidity_IsbL-0010_LatLon0.15_PT087H.grib2 2026-04-28 04:29 192K
20260428T00Z_MSC_GDPS_RelativeHumidity_IsbL-0020_LatLon0.15_PT087H.grib2 2026-04-28 04:29 159K
20260428T00Z_MSC_GDPS_RelativeHumidity_IsbL-0030_LatLon0.15_PT087H.grib2 2026-04-28 04:29 264K
20260428T00Z_MSC_GDPS_RelativeHumidity_IsbL-0050_LatLon0.15_PT087H.grib2 2026-04-28 04:29 326K
20260428T00Z_MSC_GDPS_RelativeHumidity_IsbL-0100_LatLon0.15_PT087H.grib2 2026-04-28 04:29 501K
20260428T00Z_MSC_GDPS_RelativeHumidity_IsbL-0150_LatLon0.15_PT087H.grib2 2026-04-28 04:29 650K
20260428T00Z_MSC_GDPS_RelativeHumidity_IsbL-0175_LatLon0.15_PT087H.grib2 2026-04-28 04:29 771K
20260428T00Z_MSC_GDPS_RelativeHumidity_IsbL-0200_LatLon0.15_PT087H.grib2 2026-04-28 04:29 694K
20260428T00Z_MSC_GDPS_RelativeHumidity_IsbL-0225_LatLon0.15_PT087H.grib2 2026-04-28 04:29 785K
20260428T00Z_MSC_GDPS_RelativeHumidity_IsbL-0250_LatLon0.15_PT087H.grib2 2026-04-28 04:29 867K
20260428T00Z_MSC_GDPS_RelativeHumidity_IsbL-0275_LatLon0.15_PT087H.grib2 2026-04-28 04:29 889K
20260428T00Z_MSC_GDPS_RelativeHumidity_IsbL-0300_LatLon0.15_PT087H.grib2 2026-04-28 04:29 928K
20260428T00Z_MSC_GDPS_RelativeHumidity_IsbL-0350_LatLon0.15_PT087H.grib2 2026-04-28 04:29 943K
20260428T00Z_MSC_GDPS_RelativeHumidity_IsbL-0400_LatLon0.15_PT087H.grib2 2026-04-28 04:29 966K
20260428T00Z_MSC_GDPS_RelativeHumidity_IsbL-0450_LatLon0.15_PT087H.grib2 2026-04-28 04:29 1.0M
20260428T00Z_MSC_GDPS_RelativeHumidity_IsbL-0500_LatLon0.15_PT087H.grib2 2026-04-28 04:29 1.0M
20260428T00Z_MSC_GDPS_RelativeHumidity_IsbL-0550_LatLon0.15_PT087H.grib2 2026-04-28 04:29 1.0M
20260428T00Z_MSC_GDPS_RelativeHumidity_IsbL-0600_LatLon0.15_PT087H.grib2 2026-04-28 04:29 1.0M
20260428T00Z_MSC_GDPS_RelativeHumidity_IsbL-0650_LatLon0.15_PT087H.grib2 2026-04-28 04:29 1.1M
20260428T00Z_MSC_GDPS_RelativeHumidity_IsbL-0700_LatLon0.15_PT087H.grib2 2026-04-28 04:29 1.2M
20260428T00Z_MSC_GDPS_RelativeHumidity_IsbL-0750_LatLon0.15_PT087H.grib2 2026-04-28 04:29 1.2M
20260428T00Z_MSC_GDPS_RelativeHumidity_IsbL-0800_LatLon0.15_PT087H.grib2 2026-04-28 04:29 1.3M
20260428T00Z_MSC_GDPS_RelativeHumidity_IsbL-0850_LatLon0.15_PT087H.grib2 2026-04-28 04:29 1.3M
20260428T00Z_MSC_GDPS_RelativeHumidity_IsbL-0875_LatLon0.15_PT087H.grib2 2026-04-28 04:29 1.3M
20260428T00Z_MSC_GDPS_RelativeHumidity_IsbL-0900_LatLon0.15_PT087H.grib2 2026-04-28 04:29 1.3M
20260428T00Z_MSC_GDPS_RelativeHumidity_IsbL-0925_LatLon0.15_PT087H.grib2 2026-04-28 04:29 1.2M
20260428T00Z_MSC_GDPS_RelativeHumidity_IsbL-0950_LatLon0.15_PT087H.grib2 2026-04-28 04:29 1.2M
20260428T00Z_MSC_GDPS_RelativeHumidity_IsbL-0970_LatLon0.15_PT087H.grib2 2026-04-28 04:29 1.2M
20260428T00Z_MSC_GDPS_RelativeHumidity_IsbL-0985_LatLon0.15_PT087H.grib2 2026-04-28 04:29 1.2M
20260428T00Z_MSC_GDPS_RelativeHumidity_IsbL-1000_LatLon0.15_PT087H.grib2 2026-04-28 04:29 1.1M
20260428T00Z_MSC_GDPS_RelativeHumidity_IsbL-1015_LatLon0.15_PT087H.grib2 2026-04-28 04:29 1.1M
20260428T00Z_MSC_GDPS_RelativeVorticity_IsbL-0200_LatLon0.15_PT087H.grib2 2026-04-28 04:29 1.5M
20260428T00Z_MSC_GDPS_RelativeVorticity_IsbL-0250_LatLon0.15_PT087H.grib2 2026-04-28 04:29 1.3M
20260428T00Z_MSC_GDPS_RelativeVorticity_IsbL-0500_LatLon0.15_PT087H.grib2 2026-04-28 04:29 1.4M
20260428T00Z_MSC_GDPS_RelativeVorticity_IsbL-0700_LatLon0.15_PT087H.grib2 2026-04-28 04:29 1.6M
20260428T00Z_MSC_GDPS_RelativeVorticity_IsbL-0850_LatLon0.15_PT087H.grib2 2026-04-28 04:29 2.0M
20260428T00Z_MSC_GDPS_Runoff-Accum_Sfc_LatLon0.15_PT087H.grib2 2026-04-28 04:29 122K
20260428T00Z_MSC_GDPS_SensibleHeatNetFlux_Sfc_LatLon0.15_PT087H.grib2 2026-04-28 04:29 475K
20260428T00Z_MSC_GDPS_ShowalterIndex_IsbL-0500_LatLon0.15_PT087H.grib2 2026-04-28 04:29 6.2M
20260428T00Z_MSC_GDPS_Snow-Accum1h_Sfc_LatLon0.15_PT087H.grib2 2026-04-28 04:29 1.1M
20260428T00Z_MSC_GDPS_Snow-Accum3h_Sfc_LatLon0.15_PT087H.grib2 2026-04-28 04:29 1.2M
20260428T00Z_MSC_GDPS_Snow-Accum_Sfc_LatLon0.15_PT087H.grib2 2026-04-28 04:29 2.0M
20260428T00Z_MSC_GDPS_SnowDensity_Sfc_LatLon0.15_PT087H.grib2 2026-04-28 04:29 268K
20260428T00Z_MSC_GDPS_SnowDepth_Sfc_LatLon0.15_PT087H.grib2 2026-04-28 04:29 1.7M
20260428T00Z_MSC_GDPS_SoilTemp_DBS-0to10cm_LatLon0.15_PT087H.grib2 2026-04-28 04:29 510K
20260428T00Z_MSC_GDPS_SoilTemp_Sfc_LatLon0.15_PT087H.grib2 2026-04-28 04:29 584K
20260428T00Z_MSC_GDPS_SoilVolumetricIceContent_Sfc_LatLon0.15_PT087H.grib2 2026-04-28 04:29 205K
20260428T00Z_MSC_GDPS_SoilVolumetricWaterContent_DBS-0to10cm_LatLon0.15_PT087H.grib2 2026-04-28 04:29 585K
20260428T00Z_MSC_GDPS_SoilVolumetricWaterContent_DBS-0to1cm_LatLon0.15_PT087H.grib2 2026-04-28 04:29 646K
20260428T00Z_MSC_GDPS_SpecificHumidity_AGL-120m_LatLon0.15_PT087H.grib2 2026-04-28 04:29 1.1M
20260428T00Z_MSC_GDPS_SpecificHumidity_AGL-2m_LatLon0.15_PT087H.grib2 2026-04-28 04:29 1.2M
20260428T00Z_MSC_GDPS_SpecificHumidity_AGL-40m_LatLon0.15_PT087H.grib2 2026-04-28 04:29 1.1M
20260428T00Z_MSC_GDPS_SpecificHumidity_AGL-80m_LatLon0.15_PT087H.grib2 2026-04-28 04:29 1.1M
20260428T00Z_MSC_GDPS_SpecificHumidity_IsbL-0001_LatLon0.15_PT087H.grib2 2026-04-28 04:29 1.2M
20260428T00Z_MSC_GDPS_SpecificHumidity_IsbL-0005_LatLon0.15_PT087H.grib2 2026-04-28 04:29 1.2M
20260428T00Z_MSC_GDPS_SpecificHumidity_IsbL-0010_LatLon0.15_PT087H.grib2 2026-04-28 04:29 1.3M
20260428T00Z_MSC_GDPS_SpecificHumidity_IsbL-0020_LatLon0.15_PT087H.grib2 2026-04-28 04:29 1.3M
20260428T00Z_MSC_GDPS_SpecificHumidity_IsbL-0030_LatLon0.15_PT087H.grib2 2026-04-28 04:29 1.3M
20260428T00Z_MSC_GDPS_SpecificHumidity_IsbL-0050_LatLon0.15_PT087H.grib2 2026-04-28 04:29 1.3M
20260428T00Z_MSC_GDPS_SpecificHumidity_IsbL-0100_LatLon0.15_PT087H.grib2 2026-04-28 04:29 1.3M
20260428T00Z_MSC_GDPS_SpecificHumidity_IsbL-0150_LatLon0.15_PT087H.grib2 2026-04-28 04:29 1.3M
20260428T00Z_MSC_GDPS_SpecificHumidity_IsbL-0175_LatLon0.15_PT087H.grib2 2026-04-28 04:29 1.2M
20260428T00Z_MSC_GDPS_SpecificHumidity_IsbL-0200_LatLon0.15_PT087H.grib2 2026-04-28 04:29 1.3M
20260428T00Z_MSC_GDPS_SpecificHumidity_IsbL-0225_LatLon0.15_PT087H.grib2 2026-04-28 04:29 1.3M
20260428T00Z_MSC_GDPS_SpecificHumidity_IsbL-0250_LatLon0.15_PT087H.grib2 2026-04-28 04:29 1.4M
20260428T00Z_MSC_GDPS_SpecificHumidity_IsbL-0275_LatLon0.15_PT087H.grib2 2026-04-28 04:29 1.3M
20260428T00Z_MSC_GDPS_SpecificHumidity_IsbL-0300_LatLon0.15_PT087H.grib2 2026-04-28 04:29 1.2M
20260428T00Z_MSC_GDPS_SpecificHumidity_IsbL-0350_LatLon0.15_PT087H.grib2 2026-04-28 04:29 1.2M
20260428T00Z_MSC_GDPS_SpecificHumidity_IsbL-0400_LatLon0.15_PT087H.grib2 2026-04-28 04:29 1.4M
20260428T00Z_MSC_GDPS_SpecificHumidity_IsbL-0450_LatLon0.15_PT087H.grib2 2026-04-28 04:29 1.6M
20260428T00Z_MSC_GDPS_SpecificHumidity_IsbL-0500_LatLon0.15_PT087H.grib2 2026-04-28 04:29 1.4M
20260428T00Z_MSC_GDPS_SpecificHumidity_IsbL-0550_LatLon0.15_PT087H.grib2 2026-04-28 04:29 1.6M
20260428T00Z_MSC_GDPS_SpecificHumidity_IsbL-0600_LatLon0.15_PT087H.grib2 2026-04-28 04:29 1.7M
20260428T00Z_MSC_GDPS_SpecificHumidity_IsbL-0650_LatLon0.15_PT087H.grib2 2026-04-28 04:29 1.5M
20260428T00Z_MSC_GDPS_SpecificHumidity_IsbL-0700_LatLon0.15_PT087H.grib2 2026-04-28 04:29 1.6M
20260428T00Z_MSC_GDPS_SpecificHumidity_IsbL-0750_LatLon0.15_PT087H.grib2 2026-04-28 04:29 1.7M
20260428T00Z_MSC_GDPS_SpecificHumidity_IsbL-0800_LatLon0.15_PT087H.grib2 2026-04-28 04:29 1.9M
20260428T00Z_MSC_GDPS_SpecificHumidity_IsbL-0850_LatLon0.15_PT087H.grib2 2026-04-28 04:29 1.9M
20260428T00Z_MSC_GDPS_SpecificHumidity_IsbL-0875_LatLon0.15_PT087H.grib2 2026-04-28 04:29 1.9M
20260428T00Z_MSC_GDPS_SpecificHumidity_IsbL-0900_LatLon0.15_PT087H.grib2 2026-04-28 04:29 1.9M
20260428T00Z_MSC_GDPS_SpecificHumidity_IsbL-0925_LatLon0.15_PT087H.grib2 2026-04-28 04:29 1.6M
20260428T00Z_MSC_GDPS_SpecificHumidity_IsbL-0950_LatLon0.15_PT087H.grib2 2026-04-28 04:29 1.6M
20260428T00Z_MSC_GDPS_SpecificHumidity_IsbL-0970_LatLon0.15_PT087H.grib2 2026-04-28 04:29 1.5M
20260428T00Z_MSC_GDPS_SpecificHumidity_IsbL-0985_LatLon0.15_PT087H.grib2 2026-04-28 04:29 1.5M
20260428T00Z_MSC_GDPS_SpecificHumidity_IsbL-1000_LatLon0.15_PT087H.grib2 2026-04-28 04:29 1.5M
20260428T00Z_MSC_GDPS_SpecificHumidity_IsbL-1015_LatLon0.15_PT087H.grib2 2026-04-28 04:29 1.5M
20260428T00Z_MSC_GDPS_SpecificHumidity_Sfc_LatLon0.15_PT087H.grib2 2026-04-28 04:29 672K
20260428T00Z_MSC_GDPS_Thickness_IsbL-0850to0700_LatLon0.15_PT087H.grib2 2026-04-28 04:29 465K
20260428T00Z_MSC_GDPS_Thickness_IsbL-1000to0500_LatLon0.15_PT087H.grib2 2026-04-28 04:29 367K
20260428T00Z_MSC_GDPS_Thickness_IsbL-1000to0850_LatLon0.15_PT087H.grib2 2026-04-28 04:29 487K
20260428T00Z_MSC_GDPS_TotalCloudCover_Sfc_LatLon0.15_PT087H.grib2 2026-04-28 04:29 836K
20260428T00Z_MSC_GDPS_TotalTotalsIndex_Sfc_LatLon0.15_PT087H.grib2 2026-04-28 04:29 6.2M
20260428T00Z_MSC_GDPS_UVIndex-ClearSky_Sfc_LatLon0.15_PT087H.grib2 2026-04-28 04:54 1.0M
20260428T00Z_MSC_GDPS_UVIndex_Sfc_LatLon0.15_PT087H.grib2 2026-04-28 04:54 1.5M
20260428T00Z_MSC_GDPS_UpwardLongwaveRadiationFlux_NTAtm_LatLon0.15_PT087H.grib2 2026-04-28 04:29 843K
20260428T00Z_MSC_GDPS_VerticalVelocity_IsbL-0200_LatLon0.15_PT087H.grib2 2026-04-28 04:29 1.1M
20260428T00Z_MSC_GDPS_VerticalVelocity_IsbL-0250_LatLon0.15_PT087H.grib2 2026-04-28 04:29 1.0M
20260428T00Z_MSC_GDPS_VerticalVelocity_IsbL-0500_LatLon0.15_PT087H.grib2 2026-04-28 04:29 1.3M
20260428T00Z_MSC_GDPS_VerticalVelocity_IsbL-0600_LatLon0.15_PT087H.grib2 2026-04-28 04:29 1.1M
20260428T00Z_MSC_GDPS_VerticalVelocity_IsbL-0700_LatLon0.15_PT087H.grib2 2026-04-28 04:29 1.2M
20260428T00Z_MSC_GDPS_VerticalVelocity_IsbL-0850_LatLon0.15_PT087H.grib2 2026-04-28 04:29 1.3M
20260428T00Z_MSC_GDPS_WindChill_Sfc_LatLon0.15_PT087H.grib2 2026-04-28 04:29 5.3M
20260428T00Z_MSC_GDPS_WindDir_AGL-10m_LatLon0.15_PT087H.grib2 2026-04-28 04:29 1.3M
20260428T00Z_MSC_GDPS_WindDir_AGL-120m_LatLon0.15_PT087H.grib2 2026-04-28 04:29 1.4M
20260428T00Z_MSC_GDPS_WindDir_AGL-40m_LatLon0.15_PT087H.grib2 2026-04-28 04:29 1.4M
20260428T00Z_MSC_GDPS_WindDir_AGL-80m_LatLon0.15_PT087H.grib2 2026-04-28 04:29 1.4M
20260428T00Z_MSC_GDPS_WindDir_IsbL-0001_LatLon0.15_PT087H.grib2 2026-04-28 04:29 673K
20260428T00Z_MSC_GDPS_WindDir_IsbL-0005_LatLon0.15_PT087H.grib2 2026-04-28 04:29 801K
20260428T00Z_MSC_GDPS_WindDir_IsbL-0010_LatLon0.15_PT087H.grib2 2026-04-28 04:29 843K
20260428T00Z_MSC_GDPS_WindDir_IsbL-0020_LatLon0.15_PT087H.grib2 2026-04-28 04:29 936K
20260428T00Z_MSC_GDPS_WindDir_IsbL-0030_LatLon0.15_PT087H.grib2 2026-04-28 04:29 917K
20260428T00Z_MSC_GDPS_WindDir_IsbL-0050_LatLon0.15_PT087H.grib2 2026-04-28 04:29 934K
20260428T00Z_MSC_GDPS_WindDir_IsbL-0100_LatLon0.15_PT087H.grib2 2026-04-28 04:29 1.0M
20260428T00Z_MSC_GDPS_WindDir_IsbL-0150_LatLon0.15_PT087H.grib2 2026-04-28 04:29 1.0M
20260428T00Z_MSC_GDPS_WindDir_IsbL-0175_LatLon0.15_PT087H.grib2 2026-04-28 04:29 1.1M
20260428T00Z_MSC_GDPS_WindDir_IsbL-0200_LatLon0.15_PT087H.grib2 2026-04-28 04:29 1.1M
20260428T00Z_MSC_GDPS_WindDir_IsbL-0225_LatLon0.15_PT087H.grib2 2026-04-28 04:29 1.1M
20260428T00Z_MSC_GDPS_WindDir_IsbL-0250_LatLon0.15_PT087H.grib2 2026-04-28 04:29 1.1M
20260428T00Z_MSC_GDPS_WindDir_IsbL-0275_LatLon0.15_PT087H.grib2 2026-04-28 04:29 1.2M
20260428T00Z_MSC_GDPS_WindDir_IsbL-0300_LatLon0.15_PT087H.grib2 2026-04-28 04:29 1.2M
20260428T00Z_MSC_GDPS_WindDir_IsbL-0350_LatLon0.15_PT087H.grib2 2026-04-28 04:29 1.2M
20260428T00Z_MSC_GDPS_WindDir_IsbL-0400_LatLon0.15_PT087H.grib2 2026-04-28 04:29 1.3M
20260428T00Z_MSC_GDPS_WindDir_IsbL-0450_LatLon0.15_PT087H.grib2 2026-04-28 04:29 1.3M
20260428T00Z_MSC_GDPS_WindDir_IsbL-0500_LatLon0.15_PT087H.grib2 2026-04-28 04:29 1.3M
20260428T00Z_MSC_GDPS_WindDir_IsbL-0550_LatLon0.15_PT087H.grib2 2026-04-28 04:29 1.4M
20260428T00Z_MSC_GDPS_WindDir_IsbL-0600_LatLon0.15_PT087H.grib2 2026-04-28 04:29 1.4M
20260428T00Z_MSC_GDPS_WindDir_IsbL-0650_LatLon0.15_PT087H.grib2 2026-04-28 04:29 1.5M
20260428T00Z_MSC_GDPS_WindDir_IsbL-0700_LatLon0.15_PT087H.grib2 2026-04-28 04:29 1.6M
20260428T00Z_MSC_GDPS_WindDir_IsbL-0750_LatLon0.15_PT087H.grib2 2026-04-28 04:29 1.7M
20260428T00Z_MSC_GDPS_WindDir_IsbL-0800_LatLon0.15_PT087H.grib2 2026-04-28 04:29 1.8M
20260428T00Z_MSC_GDPS_WindDir_IsbL-0850_LatLon0.15_PT087H.grib2 2026-04-28 04:29 1.9M
20260428T00Z_MSC_GDPS_WindDir_IsbL-0875_LatLon0.15_PT087H.grib2 2026-04-28 04:29 2.0M
20260428T00Z_MSC_GDPS_WindDir_IsbL-0900_LatLon0.15_PT087H.grib2 2026-04-28 04:29 2.0M
20260428T00Z_MSC_GDPS_WindDir_IsbL-0925_LatLon0.15_PT087H.grib2 2026-04-28 04:29 2.0M
20260428T00Z_MSC_GDPS_WindDir_IsbL-0950_LatLon0.15_PT087H.grib2 2026-04-28 04:29 2.0M
20260428T00Z_MSC_GDPS_WindDir_IsbL-0970_LatLon0.15_PT087H.grib2 2026-04-28 04:29 2.0M
20260428T00Z_MSC_GDPS_WindDir_IsbL-0985_LatLon0.15_PT087H.grib2 2026-04-28 04:29 2.0M
20260428T00Z_MSC_GDPS_WindDir_IsbL-1000_LatLon0.15_PT087H.grib2 2026-04-28 04:29 2.1M
20260428T00Z_MSC_GDPS_WindDir_IsbL-1015_LatLon0.15_PT087H.grib2 2026-04-28 04:29 2.0M
20260428T00Z_MSC_GDPS_WindGust-Max_AGL-10m_LatLon0.15_PT087H.grib2 2026-04-28 04:29 2.2M
20260428T00Z_MSC_GDPS_WindGust-Min_AGL-10m_LatLon0.15_PT087H.grib2 2026-04-28 04:29 2.2M
20260428T00Z_MSC_GDPS_WindGust_AGL-10m_LatLon0.15_PT087H.grib2 2026-04-28 04:29 2.1M
20260428T00Z_MSC_GDPS_WindSpeed_AGL-10m_LatLon0.15_PT087H.grib2 2026-04-28 04:29 1.1M
20260428T00Z_MSC_GDPS_WindSpeed_AGL-120m_LatLon0.15_PT087H.grib2 2026-04-28 04:29 1.2M
20260428T00Z_MSC_GDPS_WindSpeed_AGL-40m_LatLon0.15_PT087H.grib2 2026-04-28 04:29 1.2M
20260428T00Z_MSC_GDPS_WindSpeed_AGL-80m_LatLon0.15_PT087H.grib2 2026-04-28 04:29 1.2M
20260428T00Z_MSC_GDPS_WindSpeed_IsbL-0001_LatLon0.15_PT087H.grib2 2026-04-28 04:29 643K
20260428T00Z_MSC_GDPS_WindSpeed_IsbL-0005_LatLon0.15_PT087H.grib2 2026-04-28 04:29 609K
20260428T00Z_MSC_GDPS_WindSpeed_IsbL-0010_LatLon0.15_PT087H.grib2 2026-04-28 04:29 625K
20260428T00Z_MSC_GDPS_WindSpeed_IsbL-0020_LatLon0.15_PT087H.grib2 2026-04-28 04:29 856K
20260428T00Z_MSC_GDPS_WindSpeed_IsbL-0030_LatLon0.15_PT087H.grib2 2026-04-28 04:29 855K
20260428T00Z_MSC_GDPS_WindSpeed_IsbL-0050_LatLon0.15_PT087H.grib2 2026-04-28 04:29 897K
20260428T00Z_MSC_GDPS_WindSpeed_IsbL-0100_LatLon0.15_PT087H.grib2 2026-04-28 04:29 1.1M
20260428T00Z_MSC_GDPS_WindSpeed_IsbL-0150_LatLon0.15_PT087H.grib2 2026-04-28 04:29 1.0M
20260428T00Z_MSC_GDPS_WindSpeed_IsbL-0175_LatLon0.15_PT087H.grib2 2026-04-28 04:29 1.0M
20260428T00Z_MSC_GDPS_WindSpeed_IsbL-0200_LatLon0.15_PT087H.grib2 2026-04-28 04:29 1.1M
20260428T00Z_MSC_GDPS_WindSpeed_IsbL-0225_LatLon0.15_PT087H.grib2 2026-04-28 04:29 1.1M
20260428T00Z_MSC_GDPS_WindSpeed_IsbL-0250_LatLon0.15_PT087H.grib2 2026-04-28 04:29 1.1M
20260428T00Z_MSC_GDPS_WindSpeed_IsbL-0275_LatLon0.15_PT087H.grib2 2026-04-28 04:29 1.1M
20260428T00Z_MSC_GDPS_WindSpeed_IsbL-0300_LatLon0.15_PT087H.grib2 2026-04-28 04:29 1.1M
20260428T00Z_MSC_GDPS_WindSpeed_IsbL-0350_LatLon0.15_PT087H.grib2 2026-04-28 04:29 1.1M
20260428T00Z_MSC_GDPS_WindSpeed_IsbL-0400_LatLon0.15_PT087H.grib2 2026-04-28 04:29 1.1M
20260428T00Z_MSC_GDPS_WindSpeed_IsbL-0450_LatLon0.15_PT087H.grib2 2026-04-28 04:29 1.1M
20260428T00Z_MSC_GDPS_WindSpeed_IsbL-0500_LatLon0.15_PT087H.grib2 2026-04-28 04:29 1.1M
20260428T00Z_MSC_GDPS_WindSpeed_IsbL-0550_LatLon0.15_PT087H.grib2 2026-04-28 04:29 1.1M
20260428T00Z_MSC_GDPS_WindSpeed_IsbL-0600_LatLon0.15_PT087H.grib2 2026-04-28 04:29 1.1M
20260428T00Z_MSC_GDPS_WindSpeed_IsbL-0650_LatLon0.15_PT087H.grib2 2026-04-28 04:29 1.4M
20260428T00Z_MSC_GDPS_WindSpeed_IsbL-0700_LatLon0.15_PT087H.grib2 2026-04-28 04:29 1.5M
20260428T00Z_MSC_GDPS_WindSpeed_IsbL-0750_LatLon0.15_PT087H.grib2 2026-04-28 04:29 1.6M
20260428T00Z_MSC_GDPS_WindSpeed_IsbL-0800_LatLon0.15_PT087H.grib2 2026-04-28 04:29 1.7M
20260428T00Z_MSC_GDPS_WindSpeed_IsbL-0850_LatLon0.15_PT087H.grib2 2026-04-28 04:29 1.8M
20260428T00Z_MSC_GDPS_WindSpeed_IsbL-0875_LatLon0.15_PT087H.grib2 2026-04-28 04:29 1.8M
20260428T00Z_MSC_GDPS_WindSpeed_IsbL-0900_LatLon0.15_PT087H.grib2 2026-04-28 04:29 1.8M
20260428T00Z_MSC_GDPS_WindSpeed_IsbL-0925_LatLon0.15_PT087H.grib2 2026-04-28 04:29 1.8M
20260428T00Z_MSC_GDPS_WindSpeed_IsbL-0950_LatLon0.15_PT087H.grib2 2026-04-28 04:29 1.9M
20260428T00Z_MSC_GDPS_WindSpeed_IsbL-0970_LatLon0.15_PT087H.grib2 2026-04-28 04:29 1.9M
20260428T00Z_MSC_GDPS_WindSpeed_IsbL-0985_LatLon0.15_PT087H.grib2 2026-04-28 04:29 1.9M
20260428T00Z_MSC_GDPS_WindSpeed_IsbL-1000_LatLon0.15_PT087H.grib2 2026-04-28 04:29 1.9M
20260428T00Z_MSC_GDPS_WindSpeed_IsbL-1015_LatLon0.15_PT087H.grib2 2026-04-28 04:29 1.8M
20260428T00Z_MSC_GDPS_WindU_AGL-10m_LatLon0.15_PT087H.grib2 2026-04-28 04:29 1.3M
20260428T00Z_MSC_GDPS_WindU_AGL-120m_LatLon0.15_PT087H.grib2 2026-04-28 04:29 1.0M
20260428T00Z_MSC_GDPS_WindU_AGL-40m_LatLon0.15_PT087H.grib2 2026-04-28 04:29 1.0M
20260428T00Z_MSC_GDPS_WindU_AGL-80m_LatLon0.15_PT087H.grib2 2026-04-28 04:29 1.0M
20260428T00Z_MSC_GDPS_WindU_IsbL-0001_LatLon0.15_PT087H.grib2 2026-04-28 04:29 645K
20260428T00Z_MSC_GDPS_WindU_IsbL-0005_LatLon0.15_PT087H.grib2 2026-04-28 04:29 688K
20260428T00Z_MSC_GDPS_WindU_IsbL-0010_LatLon0.15_PT087H.grib2 2026-04-28 04:29 700K
20260428T00Z_MSC_GDPS_WindU_IsbL-0020_LatLon0.15_PT087H.grib2 2026-04-28 04:29 731K
20260428T00Z_MSC_GDPS_WindU_IsbL-0030_LatLon0.15_PT087H.grib2 2026-04-28 04:29 734K
20260428T00Z_MSC_GDPS_WindU_IsbL-0050_LatLon0.15_PT087H.grib2 2026-04-28 04:29 765K
20260428T00Z_MSC_GDPS_WindU_IsbL-0100_LatLon0.15_PT087H.grib2 2026-04-28 04:29 919K
20260428T00Z_MSC_GDPS_WindU_IsbL-0150_LatLon0.15_PT087H.grib2 2026-04-28 04:29 1.0M
20260428T00Z_MSC_GDPS_WindU_IsbL-0175_LatLon0.15_PT087H.grib2 2026-04-28 04:29 1.0M
20260428T00Z_MSC_GDPS_WindU_IsbL-0200_LatLon0.15_PT087H.grib2 2026-04-28 04:29 841K
20260428T00Z_MSC_GDPS_WindU_IsbL-0225_LatLon0.15_PT087H.grib2 2026-04-28 04:29 852K
20260428T00Z_MSC_GDPS_WindU_IsbL-0250_LatLon0.15_PT087H.grib2 2026-04-28 04:29 853K
20260428T00Z_MSC_GDPS_WindU_IsbL-0275_LatLon0.15_PT087H.grib2 2026-04-28 04:29 880K
20260428T00Z_MSC_GDPS_WindU_IsbL-0300_LatLon0.15_PT087H.grib2 2026-04-28 04:29 868K
20260428T00Z_MSC_GDPS_WindU_IsbL-0350_LatLon0.15_PT087H.grib2 2026-04-28 04:29 878K
20260428T00Z_MSC_GDPS_WindU_IsbL-0400_LatLon0.15_PT087H.grib2 2026-04-28 04:29 1.1M
20260428T00Z_MSC_GDPS_WindU_IsbL-0450_LatLon0.15_PT087H.grib2 2026-04-28 04:29 1.1M
20260428T00Z_MSC_GDPS_WindU_IsbL-0500_LatLon0.15_PT087H.grib2 2026-04-28 04:29 1.1M
20260428T00Z_MSC_GDPS_WindU_IsbL-0550_LatLon0.15_PT087H.grib2 2026-04-28 04:29 1.1M
20260428T00Z_MSC_GDPS_WindU_IsbL-0600_LatLon0.15_PT087H.grib2 2026-04-28 04:29 1.1M
20260428T00Z_MSC_GDPS_WindU_IsbL-0650_LatLon0.15_PT087H.grib2 2026-04-28 04:29 1.2M
20260428T00Z_MSC_GDPS_WindU_IsbL-0700_LatLon0.15_PT087H.grib2 2026-04-28 04:29 1.2M
20260428T00Z_MSC_GDPS_WindU_IsbL-0750_LatLon0.15_PT087H.grib2 2026-04-28 04:29 1.3M
20260428T00Z_MSC_GDPS_WindU_IsbL-0800_LatLon0.15_PT087H.grib2 2026-04-28 04:29 1.4M
20260428T00Z_MSC_GDPS_WindU_IsbL-0850_LatLon0.15_PT087H.grib2 2026-04-28 04:29 1.4M
20260428T00Z_MSC_GDPS_WindU_IsbL-0875_LatLon0.15_PT087H.grib2 2026-04-28 04:29 1.5M
20260428T00Z_MSC_GDPS_WindU_IsbL-0900_LatLon0.15_PT087H.grib2 2026-04-28 04:29 1.5M
20260428T00Z_MSC_GDPS_WindU_IsbL-0925_LatLon0.15_PT087H.grib2 2026-04-28 04:29 1.5M
20260428T00Z_MSC_GDPS_WindU_IsbL-0950_LatLon0.15_PT087H.grib2 2026-04-28 04:29 1.4M
20260428T00Z_MSC_GDPS_WindU_IsbL-0970_LatLon0.15_PT087H.grib2 2026-04-28 04:29 1.4M
20260428T00Z_MSC_GDPS_WindU_IsbL-0985_LatLon0.15_PT087H.grib2 2026-04-28 04:29 1.4M
20260428T00Z_MSC_GDPS_WindU_IsbL-1000_LatLon0.15_PT087H.grib2 2026-04-28 04:29 1.4M
20260428T00Z_MSC_GDPS_WindU_IsbL-1015_LatLon0.15_PT087H.grib2 2026-04-28 04:29 1.4M
20260428T00Z_MSC_GDPS_WindV_AGL-10m_LatLon0.15_PT087H.grib2 2026-04-28 04:29 1.3M
20260428T00Z_MSC_GDPS_WindV_AGL-120m_LatLon0.15_PT087H.grib2 2026-04-28 04:29 1.0M
20260428T00Z_MSC_GDPS_WindV_AGL-40m_LatLon0.15_PT087H.grib2 2026-04-28 04:29 969K
20260428T00Z_MSC_GDPS_WindV_AGL-80m_LatLon0.15_PT087H.grib2 2026-04-28 04:29 1.0M
20260428T00Z_MSC_GDPS_WindV_IsbL-0001_LatLon0.15_PT087H.grib2 2026-04-28 04:29 776K
20260428T00Z_MSC_GDPS_WindV_IsbL-0005_LatLon0.15_PT087H.grib2 2026-04-28 04:29 760K
20260428T00Z_MSC_GDPS_WindV_IsbL-0010_LatLon0.15_PT087H.grib2 2026-04-28 04:29 1.0M
20260428T00Z_MSC_GDPS_WindV_IsbL-0020_LatLon0.15_PT087H.grib2 2026-04-28 04:29 849K
20260428T00Z_MSC_GDPS_WindV_IsbL-0030_LatLon0.15_PT087H.grib2 2026-04-28 04:29 848K
20260428T00Z_MSC_GDPS_WindV_IsbL-0050_LatLon0.15_PT087H.grib2 2026-04-28 04:29 898K
20260428T00Z_MSC_GDPS_WindV_IsbL-0100_LatLon0.15_PT087H.grib2 2026-04-28 04:29 1.1M
20260428T00Z_MSC_GDPS_WindV_IsbL-0150_LatLon0.15_PT087H.grib2 2026-04-28 04:29 932K
20260428T00Z_MSC_GDPS_WindV_IsbL-0175_LatLon0.15_PT087H.grib2 2026-04-28 04:29 1.0M
20260428T00Z_MSC_GDPS_WindV_IsbL-0200_LatLon0.15_PT087H.grib2 2026-04-28 04:29 841K
20260428T00Z_MSC_GDPS_WindV_IsbL-0225_LatLon0.15_PT087H.grib2 2026-04-28 04:29 848K
20260428T00Z_MSC_GDPS_WindV_IsbL-0250_LatLon0.15_PT087H.grib2 2026-04-28 04:29 847K
20260428T00Z_MSC_GDPS_WindV_IsbL-0275_LatLon0.15_PT087H.grib2 2026-04-28 04:29 872K
20260428T00Z_MSC_GDPS_WindV_IsbL-0300_LatLon0.15_PT087H.grib2 2026-04-28 04:29 860K
20260428T00Z_MSC_GDPS_WindV_IsbL-0350_LatLon0.15_PT087H.grib2 2026-04-28 04:29 869K
20260428T00Z_MSC_GDPS_WindV_IsbL-0400_LatLon0.15_PT087H.grib2 2026-04-28 04:29 873K
20260428T00Z_MSC_GDPS_WindV_IsbL-0450_LatLon0.15_PT087H.grib2 2026-04-28 04:29 877K
20260428T00Z_MSC_GDPS_WindV_IsbL-0500_LatLon0.15_PT087H.grib2 2026-04-28 04:29 1.1M
20260428T00Z_MSC_GDPS_WindV_IsbL-0550_LatLon0.15_PT087H.grib2 2026-04-28 04:29 1.1M
20260428T00Z_MSC_GDPS_WindV_IsbL-0600_LatLon0.15_PT087H.grib2 2026-04-28 04:29 1.1M
20260428T00Z_MSC_GDPS_WindV_IsbL-0650_LatLon0.15_PT087H.grib2 2026-04-28 04:29 1.2M
20260428T00Z_MSC_GDPS_WindV_IsbL-0700_LatLon0.15_PT087H.grib2 2026-04-28 04:29 1.2M
20260428T00Z_MSC_GDPS_WindV_IsbL-0750_LatLon0.15_PT087H.grib2 2026-04-28 04:29 1.3M
20260428T00Z_MSC_GDPS_WindV_IsbL-0800_LatLon0.15_PT087H.grib2 2026-04-28 04:29 1.3M
20260428T00Z_MSC_GDPS_WindV_IsbL-0850_LatLon0.15_PT087H.grib2 2026-04-28 04:29 1.4M
20260428T00Z_MSC_GDPS_WindV_IsbL-0875_LatLon0.15_PT087H.grib2 2026-04-28 04:29 1.5M
20260428T00Z_MSC_GDPS_WindV_IsbL-0900_LatLon0.15_PT087H.grib2 2026-04-28 04:29 1.5M
20260428T00Z_MSC_GDPS_WindV_IsbL-0925_LatLon0.15_PT087H.grib2 2026-04-28 04:29 1.5M
20260428T00Z_MSC_GDPS_WindV_IsbL-0950_LatLon0.15_PT087H.grib2 2026-04-28 04:29 1.4M
20260428T00Z_MSC_GDPS_WindV_IsbL-0970_LatLon0.15_PT087H.grib2 2026-04-28 04:29 1.4M
20260428T00Z_MSC_GDPS_WindV_IsbL-0985_LatLon0.15_PT087H.grib2 2026-04-28 04:29 1.4M
20260428T00Z_MSC_GDPS_WindV_IsbL-1000_LatLon0.15_PT087H.grib2 2026-04-28 04:29 1.4M
20260428T00Z_MSC_GDPS_WindV_IsbL-1015_LatLon0.15_PT087H.grib2 2026-04-28 04:29 1.3M